GW6017 Weather Reports


time (UTC)temp
F
wind
direction
speed
knots
gust
knots
rain 1hr
in
rain 24hr
in
rain mn
in
humidity
%
barometer
mb
20260507052039 74 90 11.3 19.1 0.00 0.00 0.00 34 1020.5
20260507051519 74 68 12.2 18.2 0.00 0.00 0.00 34 1020.6
20260507051018 73 90 11.3 17.4 0.00 0.00 0.00 35 1020.5
20260507050519 73 68 13.9 21.7 0.00 0.00 0.00 35 1020.6
20260507050019 73 90 10.4 15.6 0.00 0.00 0.00 35 1020.6
20260507045520 73 90 10.4 15.6 0.00 0.00 0.00 36 1020.6
20260507045019 73 68 12.2 19.1 0.00 0.00 0.00 35 1020.7
20260507044518 73 90 10.4 17.4 0.00 0.00 0.00 36 1020.8
20260507044018 72 90 10.4 15.6 0.00 0.00 0.00 37 1020.8
20260507043518 72 90 10.4 17.4 0.00 0.00 0.00 37 1021.0
20260507043030 72 68 12.2 19.1 0.00 0.00 0.00 37 1021.0
20260507042518 71 68 13.9 20.9 0.00 0.00 0.00 38 1021.1
20260507042018 71 68 13.9 20.0 0.00 0.00 0.00 37 1021.2
20260507041518 71 90 11.3 17.4 0.00 0.00 0.00 38 1021.5
20260507041039 72 68 10.4 16.5 0.00 0.00 0.00 38 1021.7
20260507040518 71 90 11.3 18.2 0.00 0.00 0.00 37 1021.7
20260507040007 71 68 12.2 18.2 0.00 0.00 0.00 38 1021.8
20260507035519 71 68 14.8 21.7 0.00 0.00 0.00 39 1021.9
20260507035018 71 90 11.3 19.1 0.00 0.00 0.00 38 1022.0
20260507034518 71 90 11.3 15.6 0.00 0.00 0.00 39 1022.1
20260507034018 70 68 14.8 21.7 0.00 0.00 0.00 40 1022.2
20260507033539 70 68 15.6 22.6 0.00 0.00 0.00 40 1022.3
20260507033011 70 68 16.5 22.6 0.00 0.00 0.00 40 1022.4
20260507032518 70 90 12.2 18.2 0.00 0.00 0.00 41 1022.4
20260507032018 69 68 13.9 20.9 0.00 0.00 0.00 42 1022.5
20260507031518 70 68 13.0 20.9 0.00 0.00 0.00 42 1022.6
20260507031018 69 68 15.6 24.3 0.00 0.00 0.00 42 1022.7
20260507030539 69 68 17.4 24.3 0.00 0.00 0.00 42 1022.7
20260507030028 69 68 16.5 20.9 0.00 0.00 0.00 43 1022.9
20260507025518 69 68 16.5 22.6 0.00 0.00 0.00 43 1022.8
20260507025019 69 68 14.8 22.6 0.00 0.00 0.00 43 1023.0
20260507024559 69 68 14.8 21.7 0.00 0.00 0.00 44 1023.1
20260507024018 68 68 17.4 22.6 0.00 0.00 0.00 45 1023.1
20260507023518 68 68 18.2 22.6 0.00 0.00 0.00 45 1023.1
20260507023007 68 68 16.5 23.5 0.00 0.00 0.00 45 1023.2
20260507022518 67 68 19.1 24.3 0.00 0.00 0.00 46 1023.2
20260507022038 67 68 19.1 25.2 0.00 0.00 0.00 46 1023.3
20260507021518 67 90 13.9 25.2 0.00 0.00 0.00 47 1023.4
20260507021018 67 68 15.6 22.6 0.00 0.00 0.00 47 1023.5
20260507020538 67 68 16.5 26.9 0.00 0.00 0.00 48 1023.4
20260507020009 66 68 16.5 26.9 0.00 0.00 0.00 48 1023.5
20260507015518 66 90 13.9 20.9 0.00 0.00 0.00 49 1023.4
20260507015018 65 68 14.8 24.3 0.00 0.00 0.00 49 1023.5
20260507014518 65 68 14.8 23.5 0.00 0.00 0.00 50 1023.5
20260507014017 64 68 15.6 24.3 0.00 0.00 0.00 51 1023.5
20260507013518 64 68 16.5 24.3 0.00 0.00 0.00 51 1023.4
20260507013007 64 68 14.8 23.5 0.00 0.00 0.00 52 1023.4
20260507012518 63 90 13.9 24.3 0.00 0.00 0.00 53 1023.5
20260507012038 63 90 11.3 18.2 0.00 0.00 0.00 53 1023.4
20260507011517 63 90 12.2 20.0 0.00 0.00 0.00 54 1023.4
20260507011017 63 90 11.3 22.6 0.00 0.00 0.00 54 1023.5
20260507010517 62 90 13.9 22.6 0.00 0.00 0.00 55 1023.6
20260507010007 62 90 12.2 20.0 0.00 0.00 0.00 56 1023.5
20260507005517 61 90 13.0 20.0 0.00 0.00 0.00 56 1023.6
20260507005059 61 90 10.4 14.8 0.00 0.00 0.00 58 1023.5
20260507004517 60 90 11.3 17.4 0.00 0.00 0.00 58 1023.5
20260507004018 60 90 11.3 15.6 0.00 0.00 0.00 59 1023.4
20260507003518 60 90 10.4 18.2 0.00 0.00 0.00 59 1023.4
20260507003006 59 90 11.3 17.4 0.00 0.00 0.00 60 1023.4
20260507002517 59 90 10.4 16.5 0.00 0.00 0.00 60 1023.4
20260507002018 59 90 10.4 13.9 0.00 0.00 0.00 61 1023.3
20260507001518 58 90 10.4 16.5 0.00 0.00 0.00 62 1023.3
20260507001018 58 90 10.4 16.5 0.00 0.00 0.00 63 1023.3
20260507000518 57 90 9.6 13.9 0.00 0.00 0.00 63 1023.2
20260507000008 57 90 9.6 14.8 0.00 0.00 0.00 64 1023.2
20260506235518 56 90 9.6 13.9 0.00 0.00 0.00 65 1023.2
20260506235018 56 90 9.6 14.8 0.00 0.00 0.00 65 1023.2
20260506234518 56 90 9.6 14.8 0.00 0.00 0.00 66 1023.1
20260506234018 55 90 8.7 12.2 0.00 0.00 0.00 66 1023.0
20260506233517 55 90 8.7 13.9 0.00 0.00 0.00 66 1023.0
20260506233006 55 90 9.6 13.9 0.00 0.00 0.00 67 1023.0
20260506232517 55 90 8.7 13.0 0.00 0.00 0.00 67 1023.0
20260506232017 55 90 8.7 13.9 0.00 0.00 0.00 67 1023.0
20260506231518 54 90 7.8 12.2 0.00 0.00 0.00 67 1022.7
20260506231018 54 90 8.7 11.3 0.00 0.00 0.00 68 1022.7
20260506230517 54 90 8.7 13.0 0.00 0.00 0.00 68 1022.6
20260506230009 54 90 8.7 12.2 0.00 0.00 0.00 68 1022.6
20260506225520 54 90 7.8 12.2 0.00 0.00 0.00 68 1022.6
20260506225017 54 90 9.6 13.9 0.00 0.00 0.00 68 1022.5
20260506224517 54 90 8.7 13.9 0.00 0.00 0.00 68 1022.5
20260506224017 54 90 7.8 12.2 0.00 0.00 0.00 68 1022.5
20260506223518 54 90 7.8 12.2 0.00 0.00 0.00 68 1022.6
20260506223013 54 90 7.0 10.4 0.00 0.00 0.00 68 1022.5
20260506222517 54 90 7.8 12.2 0.00 0.00 0.00 68 1022.4
20260506222017 54 90 7.8 12.2 0.00 0.00 0.00 68 1022.5
20260506221517 54 90 7.8 12.2 0.00 0.00 0.00 68 1022.4
20260506221017 54 90 7.8 10.4 0.00 0.00 0.00 68 1022.3
20260506220518 54 90 7.8 12.2 0.00 0.00 0.00 68 1022.3
20260506220028 54 90 7.8 11.3 0.00 0.00 0.00 67 1022.3
20260506215517 54 90 7.8 11.3 0.00 0.00 0.00 67 1022.3
20260506215017 54 90 7.8 11.3 0.00 0.00 0.00 67 1022.3
20260506214517 54 90 8.7 13.0 0.00 0.00 0.00 67 1022.3
20260506214017 54 90 8.7 13.0 0.00 0.00 0.00 67 1022.3
20260506213517 55 90 7.8 12.2 0.00 0.00 0.00 67 1022.2
20260506213006 55 90 8.7 13.0 0.00 0.00 0.00 66 1022.3
20260506212517 55 90 7.8 11.3 0.00 0.00 0.00 66 1022.2
20260506212017 55 90 7.8 10.4 0.00 0.00 0.00 67 1022.3
20260506211517 55 90 7.8 11.3 0.00 0.00 0.00 67 1022.2
20260506211017 55 90 7.8 10.4 0.00 0.00 0.00 66 1022.2
20260506210519 55 90 7.8 11.3 0.00 0.00 0.00 66 1022.3
20260506210007 55 90 7.8 13.0 0.00 0.00 0.00 66 1022.2
20260506205519 55 90 7.8 11.3 0.00 0.00 0.00 66 1022.3
20260506205019 55 90 7.8 11.3 0.00 0.00 0.00 66 1022.3
20260506204538 55 90 8.7 13.9 0.00 0.00 0.00 66 1022.2
20260506204019 55 90 7.8 12.2 0.00 0.00 0.00 66 1022.2
20260506203520 55 90 8.7 13.9 0.00 0.00 0.00 66 1022.1
20260506203006 55 90 7.8 10.4 0.00 0.00 0.00 66 1022.0
20260506202520 55 90 8.7 12.2 0.00 0.00 0.00 65 1022.1
20260506202019 55 90 8.7 12.2 0.00 0.00 0.00 65 1022.1
20260506201519 55 113 8.7 13.9 0.00 0.00 0.00 64 1022.1
20260506201019 55 113 7.8 13.0 0.00 0.00 0.00 64 1022.1
20260506200519 56 113 8.7 13.0 0.00 0.00 0.00 64 1021.9
20260506200011 56 113 8.7 13.0 0.00 0.00 0.00 64 1021.9
20260506195519 56 113 9.6 14.8 0.00 0.00 0.00 63 1022.0
20260506195040 56 113 8.7 13.0 0.00 0.00 0.00 63 1022.0
20260506194519 56 113 8.7 13.0 0.00 0.00 0.00 63 1022.0
20260506194100 56 113 8.7 13.9 0.00 0.00 0.00 63 1022.0
20260506193600 56 113 7.8 13.0 0.00 0.00 0.00 62 1022.0
20260506193007 56 113 7.0 11.3 0.00 0.00 0.00 62 1022.0
20260506192519 56 113 7.0 12.2 0.00 0.00 0.00 62 1021.9
20260506192021 56 113 7.0 12.2 0.00 0.00 0.00 62 1022.1
20260506191519 56 113 7.0 10.4 0.00 0.00 0.00 62 1022.1
20260506191039 56 113 7.0 11.3 0.00 0.00 0.00 62 1022.2
20260506190519 56 113 7.0 13.0 0.00 0.00 0.00 62 1022.2
20260506190029 57 113 7.0 12.2 0.00 0.00 0.00 61 1022.1
20260506185519 57 113 7.0 10.4 0.00 0.00 0.00 61 1022.1
20260506185019 57 113 7.0 13.0 0.00 0.00 0.00 61 1022.2
20260506184519 57 113 7.0 10.4 0.00 0.00 0.00 61 1022.3
20260506184019 57 113 7.8 12.2 0.00 0.00 0.00 61 1022.3
20260506183521 57 113 7.0 11.3 0.00 0.00 0.00 61 1022.2
20260506183010 57 113 7.8 12.2 0.00 0.00 0.00 61 1022.3
20260506182520 57 113 8.7 12.2 0.00 0.00 0.00 61 1022.2
20260506182019 57 113 8.7 13.0 0.00 0.00 0.00 60 1022.2
20260506181540 57 113 8.7 12.2 0.00 0.00 0.00 61 1022.3
20260506181019 57 113 8.7 13.0 0.00 0.00 0.00 61 1022.3
20260506180519 57 113 7.8 13.0 0.00 0.00 0.00 61 1022.3
20260506180026 57 113 8.7 12.2 0.00 0.00 0.00 60 1022.3
20260506175518 57 113 7.8 12.2 0.00 0.00 0.00 60 1022.4
20260506175019 57 113 8.7 12.2 0.00 0.00 0.00 60 1022.3
20260506174519 57 113 8.7 11.3 0.00 0.00 0.00 59 1022.3
20260506174019 58 113 9.6 13.9 0.00 0.00 0.00 59 1022.3
20260506173518 58 113 8.7 12.2 0.00 0.00 0.00 59 1022.2
20260506173007 58 113 8.7 13.0 0.00 0.00 0.00 59 1022.3
20260506172518 58 90 8.7 12.2 0.00 0.00 0.00 59 1022.2
20260506172019 58 90 7.8 13.0 0.00 0.00 0.00 58 1022.2
20260506171518 58 113 8.7 13.0 0.00 0.00 0.00 58 1022.1
20260506171018 58 113 9.6 13.9 0.00 0.00 0.00 58 1022.1
20260506170519 58 113 8.7 12.2 0.00 0.00 0.00 58 1022.2
20260506170007 58 113 8.7 13.9 0.00 0.00 0.00 58 1022.1
20260506165518 58 113 8.7 13.0 0.00 0.00 0.00 58 1022.1
20260506165039 58 113 8.7 13.0 0.00 0.00 0.00 58 1022.1
20260506164600 58 113 7.8 13.0 0.00 0.00 0.00 58 1022.0
20260506164018 58 113 7.0 11.3 0.00 0.00 0.00 58 1022.1
20260506163518 58 113 7.0 10.4 0.00 0.00 0.00 58 1022.0
20260506163028 58 113 7.0 13.0 0.00 0.00 0.00 58 1022.1
20260506162519 58 113 7.8 11.3 0.00 0.00 0.00 58 1022.1
20260506162018 58 113 7.8 12.2 0.00 0.00 0.00 58 1022.0
20260506161519 58 113 8.7 12.2 0.00 0.00 0.00 58 1022.1
20260506161039 58 113 7.8 12.2 0.00 0.00 0.00 59 1022.1
20260506160519 58 113 7.0 10.4 0.00 0.00 0.00 59 1022.1
20260506160014 58 113 7.0 11.3 0.00 0.00 0.00 59 1022.0
20260506155518 58 113 7.0 13.0 0.00 0.00 0.00 59 1022.0
20260506155038 58 113 7.0 13.0 0.00 0.00 0.00 59 1022.0
20260506154517 58 113 6.1 10.4 0.00 0.00 0.00 58 1021.9
20260506154018 58 113 7.0 10.4 0.00 0.00 0.00 58 1022.0
20260506153518 58 113 6.1 10.4 0.00 0.00 0.00 58 1022.0
20260506153052 58 113 5.2 9.6 0.00 0.00 0.00 58 1022.1
20260506152518 58 113 6.1 11.3 0.00 0.00 0.00 58 1022.1
20260506152017 58 113 5.2 11.3 0.00 0.00 0.00 58 1022.1
20260506151518 58 113 6.1 11.3 0.00 0.00 0.00 57 1022.2
20260506151018 59 113 5.2 10.4 0.00 0.00 0.00 56 1022.1
20260506150517 59 113 6.1 10.4 0.00 0.00 0.00 56 1022.2
20260506150007 59 113 6.1 11.3 0.00 0.00 0.00 56 1022.3
20260506145518 59 113 6.1 10.4 0.00 0.00 0.00 56 1022.3
20260506145020 59 113 6.1 10.4 0.00 0.00 0.00 55 1022.3
20260506144517 59 135 5.2 8.7 0.00 0.00 0.00 55 1022.3
20260506144018 59 135 5.2 9.6 0.00 0.00 0.00 54 1022.4
20260506143538 58 135 4.3 8.7 0.00 0.00 0.00 55 1022.3
20260506143028 58 135 5.2 9.6 0.00 0.00 0.00 54 1022.3
20260506142538 58 135 4.3 7.8 0.00 0.00 0.00 54 1022.2
20260506142017 59 135 5.2 8.7 0.00 0.00 0.00 54 1022.2
20260506141518 59 135 5.2 8.7 0.00 0.00 0.00 54 1022.1
20260506141017 59 135 4.3 7.8 0.00 0.00 0.00 54 1022.1
20260506140538 58 135 4.3 8.7 0.00 0.00 0.00 54 1022.1
20260506140008 58 135 3.5 6.1 0.00 0.00 0.00 55 1022.1
20260506135518 57 135 4.3 7.0 0.00 0.00 0.00 55 1021.9
20260506135017 57 158 4.3 7.8 0.00 0.00 0.00 55 1022.1
20260506134538 57 158 5.2 7.0 0.00 0.00 0.00 55 1022.0
20260506134017 57 158 4.3 7.8 0.00 0.00 0.00 56 1021.9
20260506133538 56 158 2.6 4.3 0.00 0.00 0.00 56 1021.9
20260506133047 57 158 3.5 5.2 0.00 0.00 0.00 55 1021.9
20260506132517 58 158 2.6 4.3 0.00 0.00 0.00 52 1021.8
20260506132017 60 158 1.7 4.3 0.00 0.00 0.00 49 1021.9
20260506131538 62 135 2.6 5.2 0.00 0.00 0.00 47 1021.9
20260506131017 62 135 2.6 5.2 0.00 0.00 0.00 46 1021.8
20260506130517 62 113 3.5 7.0 0.00 0.00 0.00 46 1021.9
20260506130007 62 135 2.6 6.1 0.00 0.00 0.00 46 1021.9
20260506125518 63 113 3.5 6.1 0.00 0.00 0.00 45 1021.7
20260506124517 63 113 4.3 8.7 0.00 0.00 0.00 45 1021.7
20260506124018 63 113 4.3 7.8 0.00 0.00 0.00 45 1021.7
20260506123538 63 113 4.3 8.7 0.00 0.00 0.00 45 1021.7
20260506123008 63 113 5.2 7.8 0.00 0.00 0.00 45 1021.7
20260506122517 63 113 3.5 7.0 0.00 0.00 0.00 45
20260506122019 63 113 4.3 7.8 0.00 0.00 0.00 45
20260506121520 63 113 4.3 8.7 0.00 0.00 0.00 45
20260506121017 63 135 3.5 7.0 0.00 0.00 0.00 45
20260506120517 63 113 4.3 7.0 0.00 0.00 0.00 45
20260506120007 63 113 3.5 7.8 0.00 0.00 0.00 45
20260506115538 63 113 3.5 7.0 0.00 0.00 0.00 45 1021.2
20260506115100 63 113 3.5 6.1 0.00 0.00 0.00 44 1021.1
20260506114538 63 113 3.5 7.0 0.00 0.00 0.00 44 1021.1
20260506114019 64 135 3.5 7.0 0.00 0.00 0.00 44 1021.0
20260506113519 64 113 3.5 7.8 0.00 0.00 0.00 43 1021.0
20260506113011 64 113 3.5 7.0 0.00 0.00 0.00 43 1021.0
20260506112517 64 113 3.5 7.0 0.00 0.00 0.00 43 1020.9
20260506112020 64 113 2.6 6.1 0.00 0.00 0.00 43 1020.8
20260506111519 64 113 3.5 6.1 0.00 0.00 0.00 43 1020.6
20260506111019 64 135 2.6 4.3 0.00 0.00 0.00 43 1020.6
20260506110519 65 113 2.6 6.1 0.00 0.00 0.00 42 1020.4
20260506110028 65 113 3.5 6.1 0.00 0.00 0.00 42 1020.4
20260506105519 65 113 3.5 7.0 0.00 0.00 0.00 42 1020.4
20260506105019 65 113 3.5 7.0 0.00 0.00 0.00 42 1020.4
20260506104519 65 135 3.5 7.8 0.00 0.00 0.00 41 1020.3
20260506104041 66 113 3.5 8.7 0.00 0.00 0.00 41 1020.4
20260506103519 66 135 4.3 7.8 0.00 0.00 0.00 40 1020.3
20260506103010 66 135 5.2 11.3 0.00 0.00 0.00 40 1020.2
20260506102520 67 135 7.0 11.3 0.00 0.00 0.00 39 1020.2
20260506102019 67 135 5.2 10.4 0.00 0.00 0.00 39 1020.2
20260506101519 67 135 5.2 9.6 0.00 0.00 0.00 39 1020.2
20260506101019 67 158 6.1 9.6 0.00 0.00 0.00 38 1020.3
20260506100519 68 135 6.1 10.4 0.00 0.00 0.00 38 1020.3
20260506100016 68 158 7.0 10.4 0.00 0.00 0.00 38 1020.2
20260506095519 68 135 6.1 10.4 0.00 0.00 0.00 37 1020.2
20260506095020 69 135 6.1 10.4 0.00 0.00 0.00 37 1020.2
20260506094539 69 135 4.3 8.7 0.00 0.00 0.00 36 1020.1
20260506094019 70 135 5.2 8.7 0.00 0.00 0.00 36 1020.1
20260506093600 70 135 6.1 10.4 0.00 0.00 0.00 35 1020.0
20260506093010 71 135 4.3 10.4 0.00 0.00 0.00 34 1020.1
20260506092540 71 113 6.1 10.4 0.00 0.00 0.00 33 1020.0
20260506092019 72 113 6.1 11.3 0.00 0.00 0.00 32 1020.0
20260506091540 72 113 4.3 7.8 0.00 0.00 0.00 32 1019.9
20260506091019 72 113 5.2 11.3 0.00 0.00 0.00 32 1019.9
20260506090539 72 113 7.8 15.6 0.00 0.00 0.00 31 1019.8
20260506090007 73 113 7.8 12.2 0.00 0.00 0.00 31 1020.0
20260506085519 73 113 7.8 13.0 0.00 0.00 0.00 31 1019.9
20260506085018 73 113 6.1 12.2 0.00 0.00 0.00 31 1019.9
20260506084519 73 113 8.7 15.6 0.00 0.00 0.00 30 1019.9
20260506084039 73 135 8.7 14.8 0.00 0.00 0.00 30 1019.8
20260506083519 74 135 7.0 11.3 0.00 0.00 0.00 30 1019.8
20260506083007 74 113 7.8 13.0 0.00 0.00 0.00 30 1019.8
20260506082519 74 113 7.8 14.8 0.00 0.00 0.00 29 1019.8
20260506082022 74 113 7.8 15.6 0.00 0.00 0.00 29 1019.8
20260506081519 74 135 7.0 10.4 0.00 0.00 0.00 29 1019.7
20260506081019 74 113 7.8 13.0 0.00 0.00 0.00 29 1019.7
20260506080519 74 113 7.8 12.2 0.00 0.00 0.00 29 1019.7
20260506073519 75 113 7.0 12.2 0.00 0.00 0.00 29 1019.8
20260506073018 75 113 7.0 13.0 0.00 0.00 0.00 29 1019.7
20260506072518 75 90 8.7 13.9 0.00 0.00 0.00 29 1019.7
20260506072018 74 113 7.0 12.2 0.00 0.00 0.00 30 1019.8
20260506071539 75 113 9.6 13.9 0.00 0.00 0.00 30 1019.8
20260506071018 75 113 6.1 11.3 0.00 0.00 0.00 30 1019.7
20260506070519 75 113 7.0 13.9 0.00 0.00 0.00 30 1019.8
20260506062018 74 113 8.7 16.5 0.00 0.00 0.00 31 1019.9
20260506061518 74 113 7.0 13.0 0.00 0.00 0.00 32 1019.9
20260506061018 74 113 7.0 13.0 0.00 0.00 0.00 33 1019.9
20260506060518 74 113 8.7 15.6 0.00 0.00 0.00 32 1020.0